Weather History for KLUK - August, 2013

Change the Weather History Date:

Sunday, August 11, 2013

  Actual Average (KCVG) Record (KCVG)
Temperature  
Mean Temperature 78 °F 75 °F  
Max Temperature 87 °F 85 °F 99 °F (1941)
Min Temperature 68 °F 66 °F 53 °F (1972)
Degree Days  
Heating Degree Days 0 0  
Month to date heating degree days 0  
Since 1 June heating degree days 15  
Since 1 July heating degree days 0  
Cooling Degree Days 12 10  
Month to date cooling degree days 119  
Year to date cooling degree days 778  
Since 1 June cooling degree days 684  
Growing Degree Days 28 (Base 50)    
Moisture  
Dew Point 68 °F    
Average Humidity 79    
Maximum Humidity 100    
Minimum Humidity 53    
Precipitation  
Precipitation 0.00 in 0.11 in 3.04 in (1957)
Month to date precipitation 1.25  
Year to date precipitation 27.63  
Snow  
Snow 0.00 in 0.00 in 0.00 in ()
Month to date snowfall 0.0  
Since 1 June snowfall 0.0  
Since 1 July snowfall 0.0  
Snow Depth -    
Sea Level Pressure  
Sea Level Pressure 30.07 in    
Wind  
Wind Speed 2 mph (WNW)    
Max Wind Speed 9 mph    
Max Gust Speed -    
Visibility 8 miles    
Events      
T = Trace of Precipitation, MM = Missing Value Source: NWS Daily Summary

Daily Weather History Graph

Daily Weather History Graph

Search for Another Location

Airport or City:

Trip Planner

Search our weather history database for the weather conditions in past years. The results will help you decide how hot, cold, wet, or windy it might be!

Date:

Astronomy

Aug. 11, 2013 Rise Set
Actual Time 6:47 AM EDT 8:37 PM EDT
Civil Twilight 6:18 AM EDT 9:06 PM EDT
Nautical Twilight 5:43 AM EDT 9:41 PM EDT
Astronomical Twilight 5:05 AM EDT 10:18 PM EDT
Moon 11:31 AM EDT (8/11) 10:55 PM EDT (8/11)
Length of Visible Light 14h 47m
Length of Day
13h 50m
Waxing Crescent, 22% of the Moon is Illuminated
Aug 11
Waxing Crescent
Aug 14
First Quarter
Aug 20
Full
Aug 28
Last Quarter
Sep 5
New

Hourly Weather History & Observations

Time (EDT) Temp. Heat Index Dew Point Humidity Pressure Visibility Wind Dir Wind Speed Gust Speed Precip Events Conditions
12:53 AM 71.1 °F - 70.0 °F 96% 30.08 in 5.0 mi Calm Calm - N/A   Mostly Cloudy
1:53 AM 71.1 °F - 70.0 °F 96% 30.08 in 5.0 mi Calm Calm - N/A   Overcast
2:53 AM 70.0 °F - 69.1 °F 97% 30.08 in 4.0 mi Calm Calm - N/A   Overcast
3:53 AM 70.0 °F - 69.1 °F 97% 30.08 in 3.0 mi Calm Calm - N/A   Mostly Cloudy
4:53 AM 70.0 °F - 70.0 °F 100% 30.07 in 4.0 mi Calm Calm - N/A   Overcast
5:53 AM 71.1 °F - 70.0 °F 96% 30.07 in 4.0 mi Calm Calm - N/A   Overcast
6:53 AM 70.0 °F - 70.0 °F 100% 30.08 in 3.0 mi Calm Calm - N/A   Overcast
7:53 AM 71.1 °F - 70.0 °F 96% 30.09 in 3.0 mi Calm Calm - N/A   Mostly Cloudy
8:53 AM 73.0 °F - 72.0 °F 96% 30.09 in 3.0 mi Calm Calm - N/A   Mostly Cloudy
9:53 AM 75.9 °F - 72.0 °F 87% 30.09 in 7.0 mi Calm Calm - N/A   Mostly Cloudy
10:53 AM 78.1 °F - 71.1 °F 79% 30.10 in 8.0 mi Calm Calm - N/A   Mostly Cloudy
11:53 AM 80.1 °F 83.6 °F 71.1 °F 74% 30.08 in 10.0 mi SE 3.5 mph - N/A   Mostly Cloudy
12:53 PM 82.0 °F 85.9 °F 70.0 °F 67% 30.08 in 10.0 mi South 4.6 mph - N/A   Partly Cloudy
1:53 PM 84.0 °F 86.5 °F 66.9 °F 56% 30.06 in 10.0 mi West 8.1 mph - N/A   Partly Cloudy
2:53 PM 84.9 °F 88.2 °F 68.0 °F 57% 30.05 in 10.0 mi West 9.2 mph - N/A   Partly Cloudy
3:53 PM 84.9 °F 87.1 °F 66.0 °F 53% 30.04 in 10.0 mi WNW 6.9 mph - N/A   Mostly Cloudy
4:53 PM 84.0 °F 86.3 °F 66.0 °F 55% 30.03 in 10.0 mi NW 6.9 mph - N/A   Mostly Cloudy
5:53 PM 86.0 °F 88.8 °F 66.9 °F 53% 30.03 in 10.0 mi NNW 8.1 mph - N/A   Clear
6:53 PM 84.9 °F 87.6 °F 66.9 °F 55% 30.02 in 10.0 mi North 8.1 mph - N/A   Scattered Clouds
7:53 PM 82.0 °F 83.8 °F 64.9 °F 56% 30.04 in 10.0 mi NW 4.6 mph - N/A   Partly Cloudy
8:53 PM 80.1 °F 81.2 °F 62.1 °F 54% 30.05 in 10.0 mi Calm Calm - N/A   Clear
9:53 PM 70.0 °F - 66.9 °F 90% 30.07 in 10.0 mi Calm Calm - N/A   Clear
10:53 PM 69.1 °F - 66.0 °F 90% 30.08 in 10.0 mi Calm Calm - N/A   Clear
11:53 PM 68.0 °F - 64.9 °F 90% 30.08 in 10.0 mi Calm Calm - N/A   Clear